Date String (YYYY-MM-DD hh:mm:ss) UTC,Instrument flags,Ambient pressure (hPa),Sample flow (lpm),Bypass flow (lpm),Sample temperature (°C),Ambient temperature (°C),ASC tube jacket temperature (°C),LED temperature (°C),Box temperature (°C),Sample RH (%),Span deviation,Mass concentration (μg/m³),Mass concentration (μg/m³),Mass concentration (μg/m³)
DateTimeUTC,F1_M11,P_M11,Q1_M11,Q2_M11,T1_M11,T2_M11,T3_M11,T4_M11,T5_M11,U1_M11,ZSPAN_M11,X0_M11,X2_M11,X1_M11
2021-10-05 16:00:00,,0832.8,4.99,0.00,30.0,28.7,00.0,39.2,31.8,12.9,0001.3,0012.84,0004.72,0003.64
2021-10-05 16:01:00,,0832.8,5.00,0.00,30.1,28.8,00.0,39.2,31.8,13.3,0000.0,0013.04,0004.68,0003.64
2021-10-05 16:02:00,,0832.8,5.00,0.00,30.1,28.9,00.0,39.2,31.8,13.1,0000.0,0013.17,0004.70,0003.63
2021-10-05 16:03:00,,0832.8,5.00,0.00,30.1,29.0,00.0,39.2,31.9,13.0,0000.0,0013.10,0004.69,0003.64
2021-10-05 16:04:00,,0832.8,4.99,0.00,30.2,29.1,00.0,39.2,31.9,13.0,0000.3,0013.65,0004.70,0003.65
2021-10-05 16:05:00,,0832.8,4.99,0.00,30.2,29.2,00.0,39.2,32.0,13.1,0000.0,0014.29,0004.70,0003.65
2021-10-05 16:06:00,,0832.8,5.00,0.00,30.2,29.3,00.0,39.2,32.0,13.3,0000.0,0014.85,0004.69,0003.65
2021-10-05 16:07:00,,0832.7,5.00,0.00,30.2,29.3,00.0,39.2,32.0,13.3,0000.0,0015.37,0004.66,0003.65
2021-10-05 16:08:00,,0832.8,5.00,0.00,30.3,29.4,00.0,39.3,32.0,13.5,0000.0,0015.84,0004.65,0003.66
2021-10-05 16:09:00,,0832.8,4.99,0.00,30.3,29.4,00.0,39.3,32.1,13.3,0001.3,0015.29,0004.61,0003.67
2021-10-05 16:10:00,,0832.7,5.00,0.00,30.3,29.4,00.0,39.3,32.1,13.0,0001.4,0015.62,0004.62,0003.67
2021-10-05 16:11:00,,0832.7,4.99,0.00,30.3,28.4,00.0,39.3,31.9,12.9,0000.0,0015.22,0004.65,0003.68
2021-10-05 16:12:00,,0832.8,5.01,0.00,30.2,26.6,00.0,39.3,31.5,13.0,0000.3,0015.01,0004.67,0003.69
2021-10-05 16:13:00,,0832.8,4.99,0.00,30.0,26.4,00.0,39.2,31.3,13.2,0000.9,0014.88,0004.66,0003.70
2021-10-05 16:14:00,,0832.8,5.01,0.00,30.0,26.8,00.0,39.2,31.4,13.3,0000.0,0014.99,0004.69,0003.70
2021-10-05 16:15:00,,0832.8,4.99,0.00,29.9,27.2,00.0,39.1,31.4,13.4,0000.0,0014.53,0004.68,0003.69
2021-10-05 16:16:00,,0832.8,5.01,0.00,29.9,27.6,00.0,39.1,31.5,13.6,0000.0,0014.67,0004.70,0003.69
2021-10-05 16:17:00,,0832.8,4.99,0.00,29.9,27.9,00.0,39.0,31.5,13.7,0000.0,0014.00,0004.72,0003.71
2021-10-05 16:18:00,,0832.8,4.99,0.00,29.9,28.2,00.0,39.0,31.6,13.9,0000.0,0013.27,0004.70,0003.71
2021-10-05 16:19:00,,0832.8,4.99,0.00,29.9,28.4,00.0,39.0,31.7,13.6,0000.0,0012.83,0004.65,0003.70
2021-10-05 16:20:00,,0832.8,4.99,0.00,30.0,28.6,00.0,39.0,31.7,13.5,0000.0,0013.09,0004.68,0003.70
2021-10-05 16:21:00,,0832.8,5.02,0.00,30.0,28.7,00.0,39.0,31.7,13.9,0000.0,0012.55,0004.66,0003.70
2021-10-05 16:22:00,,0832.8,5.00,0.00,30.0,28.8,00.0,39.0,31.7,13.8,0001.0,0012.56,0004.64,0003.70
2021-10-05 16:23:00,,0832.8,4.99,0.00,30.0,28.9,00.0,39.1,31.8,13.4,0001.1,0012.63,0004.65,0003.69
2021-10-05 16:24:00,,0832.8,5.00,0.00,30.1,29.0,00.0,39.1,31.8,13.4,0002.1,0013.21,0004.68,0003.70
2021-10-05 16:25:00,,0832.8,5.00,0.00,30.1,29.1,00.0,39.1,31.9,13.5,0001.9,0012.94,0004.68,0003.71
2021-10-05 16:26:00,,0832.8,5.00,0.00,30.1,29.2,00.0,39.1,31.9,13.7,0001.7,0013.03,0004.71,0003.74
2021-10-05 16:27:00,,0832.8,5.00,0.00,30.1,29.2,00.0,39.1,32.0,13.7,0001.4,0011.88,0004.67,0003.74
2021-10-05 16:28:00,,0832.8,5.00,0.00,30.2,29.3,00.0,39.1,32.0,13.8,0000.5,0011.74,0004.65,0003.73
2021-10-05 16:29:00,,0832.7,4.99,0.00,30.2,29.3,00.0,39.1,32.0,13.9,0000.7,0012.03,0004.73,0003.73
2021-10-05 16:30:00,,0832.8,5.01,0.00,30.2,28.6,00.0,39.2,31.8,14.1,-000.3,0011.81,0004.82,0003.76
2021-10-05 16:31:00,,0832.7,4.99,0.00,30.1,26.7,00.0,39.1,31.4,14.4,-001.1,0011.67,0004.82,0003.77
2021-10-05 16:32:00,,0832.7,5.01,0.00,29.9,26.3,00.0,39.1,31.2,14.3,-000.6,0011.68,0004.84,0003.78
2021-10-05 16:33:00,,0832.7,5.00,0.00,29.9,26.7,00.0,39.1,31.3,14.7,0000.5,0012.10,0004.90,0003.78
2021-10-05 16:34:00,,0832.7,4.99,0.00,29.8,27.1,00.0,39.0,31.3,14.7,0001.0,0012.35,0004.91,0003.79
2021-10-05 16:35:00,,0832.7,5.01,0.00,29.8,27.5,00.0,39.0,31.4,14.4,0001.0,0012.11,0004.91,0003.81
2021-10-05 16:36:00,,0832.7,5.00,0.00,29.8,27.8,00.0,39.0,31.4,14.3,0001.2,0012.52,0004.93,0003.82
2021-10-05 16:37:00,,0832.7,5.00,0.00,29.8,28.1,00.0,38.9,31.5,14.0,0001.6,0012.49,0004.96,0003.82
2021-10-05 16:38:00,,0832.7,4.99,0.00,29.8,28.3,00.0,38.9,31.6,14.2,0001.3,0013.29,0005.07,0003.83
2021-10-05 16:39:00,,0832.7,5.01,0.00,29.9,28.5,00.0,38.9,31.6,14.2,0001.1,0013.79,0005.16,0003.85
2021-10-05 16:40:00,,0832.7,5.01,0.00,29.9,28.6,00.0,38.9,31.7,14.1,0001.5,0013.91,0005.19,0003.87
2021-10-05 16:41:00,,0832.7,5.00,0.00,29.9,28.8,00.0,38.9,31.7,13.7,0001.9,0013.98,0005.19,0003.86
2021-10-05 16:42:00,,0832.7,5.00,0.00,30.0,28.9,00.0,39.0,31.8,13.6,0002.0,0013.40,0005.22,0003.88
2021-10-05 16:43:00,,0832.7,5.01,0.00,30.0,29.0,00.0,39.0,31.8,14.1,0002.1,0013.71,0005.26,0003.90
2021-10-05 16:44:00,,0832.7,5.01,0.00,30.0,29.0,00.0,39.0,31.8,13.8,0001.8,0013.87,0005.24,0003.92
2021-10-05 16:45:00,,0832.7,4.99,0.00,30.0,29.1,00.0,39.0,31.9,13.3,0001.8,0013.73,0005.31,0003.93
2021-10-05 16:46:00,,0832.7,5.01,0.00,30.1,29.2,00.0,39.0,31.9,13.6,0002.1,0015.20,0005.33,0003.93
2021-10-05 16:47:00,,0832.7,5.00,0.00,30.1,28.6,00.0,39.0,31.8,13.7,0001.5,0015.79,0005.36,0003.94
2021-10-05 16:48:00,,0832.7,5.00,0.00,29.9,26.6,00.0,39.0,31.2,14.0,0000.9,0016.43,0005.37,0003.94
2021-10-05 16:49:00,,0832.7,5.00,0.00,29.8,26.1,00.0,39.0,31.1,13.6,0000.8,0016.30,0005.30,0003.95
2021-10-05 16:50:00,,0832.7,5.00,0.00,29.7,26.5,00.0,38.9,31.2,13.6,0000.8,0016.26,0005.25,0003.95
2021-10-05 16:51:00,,0832.7,5.00,0.00,29.7,26.9,00.0,38.9,31.2,13.5,0000.3,0016.55,0005.17,0003.94
2021-10-05 16:52:00,,0832.6,5.01,0.00,29.7,27.3,00.0,38.9,31.3,13.8,0000.0,0017.26,0005.17,0003.93
2021-10-05 16:53:00,,0832.6,5.00,0.00,29.7,27.7,00.0,38.8,31.3,13.8,0000.0,0017.27,0005.16,0003.92
2021-10-05 16:54:00,,0832.6,4.99,0.00,29.7,28.0,00.0,38.8,31.4,13.7,0000.0,0017.23,0005.19,0003.90
2021-10-05 16:55:00,,0832.6,5.00,0.00,29.7,28.2,00.0,38.8,31.5,13.9,0000.2,0017.53,0005.22,0003.89
2021-10-05 16:56:00,,0832.6,5.01,0.00,29.7,28.4,00.0,38.8,31.5,13.9,0001.4,0017.60,0005.17,0003.89
2021-10-05 16:57:00,,0832.6,5.01,0.00,29.8,28.6,00.0,38.8,31.6,14.3,0001.6,0016.64,0005.17,0003.89
2021-10-05 16:58:00,,0832.5,5.00,0.00,29.8,28.7,00.0,38.8,31.6,14.2,0001.8,0015.92,0005.15,0003.88
2021-10-05 16:59:00,,0832.6,5.00,0.00,29.8,28.8,00.0,38.8,31.7,14.6,0001.8,0015.36,0005.11,0003.87
